Wind_Speed
33 33 34 34 34 33 32 30 29 28 28 28 28 28 27 27 27 26 25 24 24 23 23 22 22 22 22 22 21 20 19 18 17 16 15 14 13 12 12 11 11 10 10 10 9 9 9 8 8
34 34 34 35 35 34 32 31 30 30 30 30 29 29 28 28 27 27 26 26 26 26 25 25 24 24 23 23 22 22 22 21 20 19 18 17 16 15 14 13 12 12 12 12 11 10 10 10 10
35 35 35 35 35 34 32 32 31 31 31 31 31 31 30 30 29 28 27 27 28 28 27 27 27 26 25 25 24 24 23 23 22 21 21 20 19 17 16 16 15 14 14 13 13 13 12 12 12
36 36 36 35 34 33 33 32 32 31 32 32 32 32 32 32 31 30 29 29 29 29 30 29 29 28 28 28 27 26 25 25 24 23 23 22 21 20 19 18 18 17 16 15 15 15 14 14 14
37 37 36 35 34 32 32 32 32 32 32 32 32 32 32 33 33 33 32 31 31 31 31 31 31 31 30 30 30 29 28 27 26 26 25 25 24 23 22 21 20 19 19 18 17 17 17 16 15
37 37 37 35 34 33 32 32 32 32 32 32 32 32 32 32 33 33 34 33 33 33 33 33 33 33 33 32 31 31 31 30 29 28 27 27 26 26 25 24 23 22 21 20 19 19 19 18 17
38 37 36 35 34 33 31 31 31 31 31 31 32 32 32 33 33 34 34 35 35 35 35 35 36 36 35 35 34 33 33 33 32 31 30 29 28 27 27 26 25 24 23 22 21 21 20 20 19
37 37 36 34 33 33 31 31 31 31 31 32 32 32 33 33 34 34 34 35 35 35 36 37 37 37 37 36 36 35 35 34 34 34 33 32 30 29 29 28 27 26 25 25 24 23 22 22 21
37 37 36 34 34 33 32 31 31 30 31 31 31 32 32 32 33 34 34 35 35 36 36 37 37 38 38 38 37 37 36 36 35 35 34 33 32 31 30 29 29 28 27 27 26 25 24 24 23
36 36 36 35 35 34 33 32 31 31 31 30 30 31 31 32 33 34 35 35 35 35 35 37 37 38 39 39 38 38 37 37 36 35 35 34 34 33 32 30 30 30 29 29 28 27 26 25 25
35 35 35 35 35 34 33 33 33 32 32 32 31 31 32 32 33 34 35 36 35 35 35 36 37 38 39 39 39 39 38 38 37 37 36 36 35 34 33 32 32 31 31 31 30 29 28 27 26
34 34 34 34 34 34 34 34 34 34 33 33 33 33 33 33 34 35 35 36 36 36 36 36 37 38 38 39 39 40 40 40 39 38 38 38 37 36 35 34 34 33 33 32 31 30 30 29 28
33 32 32 32 33 33 33 33 34 34 34 34 34 34 34 34 34 34 35 36 36 36 36 37 37 38 39 39 39 40 40 41 40 40 40 40 40 39 38 37 36 35 35 35 34 33 32 31 31
30 31 32 31 32 32 32 32 33 33 33 33 33 33 34 34 34 34 34 35 35 36 37 37 37 38 40 40 41 41 42 42 42 43 43 43 43 42 40 39 38 37 36 37 38 36 34 34 33
28 29 30 30 30 31 31 31 31 31 31 32 32 32 32 32 33 33 33 34 35 35 36 37 38 39 40 41 42 43 43 43 44 44 44 45 45 44 42 41 40 40 39 39 39 38 37 37 36
26 28 29 29 29 29 30 29 30 30 31 31 31 31 31 31 31 31 32 33 33 34 34 36 38 39 39 41 42 44 45 45 45 45 45 45 46 46 45 44 43 43 42 41 41 40 39 38 38
25 26 27 27 28 28 28 28 29 30 30 31 31 31 31 31 31 31 32 33 33 34 35 35 36 38 39 40 42 44 44 46 46 46 46 47 47 48 48 47 45 45 44 44 43 41 41 40 39
23 24 24 25 25 26 27 27 28 29 30 30 31 31 31 31 31 32 32 32 33 34 34 35 36 37 38 40 41 42 44 45 46 47 47 47 48 49 49 48 47 47 46 45 44 44 42 41 41
22 23 22 23 24 25 25 26 26 27 27 28 28 29 30 30 30 31 31 32 33 34 35 36 36 36 37 39 40 41 42 44 45 45 46 47 48 49 50 50 49 48 48 47 46 45 44 43 42
19 20 21 22 23 23 23 23 24 25 25 26 26 27 28 29 29 30 30 32 33 33 34 35 36 36 36 38 40 41 42 43 44 44 45 46 47 49 51 51 50 49 49 48 48 47 47 45 44
15 17 18 19 20 20 21 21 22 23 24 25 25 26 27 28 28 28 29 30 31 32 33 33 34 35 36 37 38 40 41 41 42 44 44 44 45 47 49 51 51 50 50 51 50 50 50 49 47
12 14 15 17 18 18 19 20 20 22 23 23 24 25 26 27 27 27 28 29 30 30 31 32 33 34 34 34 35 37 39 41 42 42 43 44 45 46 47 49 50 51 50 50 51 50 51 51 49
12 13 14 15 16 18 19 21 20 21 22 23 24 25 26 26 27 27 27 28 29 28 29 30 31 31 31 33 33 34 36 38 40 41 43 44 45 46 47 49 49 50 51 50 51 50 51 51 51
11 13 14 15 16 17 18 20 20 21 21 22 22 23 25 26 26 26 26 27 27 27 28 28 29 29 30 31 32 32 33 35 37 39 40 41 41 42 44 47 48 49 50 51 51 50 50 50 50
11 12 13 14 15 16 16 18 18 19 20 21 21 22 24 24 25 25 25 25 26 26 26 26 27 27 28 28 29 30 31 32 34 36 38 39 39 39 41 43 45 47 47 49 49 48 48 49 49
10 12 13 15 15 14 15 16 17 18 18 19 20 22 22 23 24 26 26 25 25 25 25 26 26 26 26 27 28 28 29 30 32 33 35 36 36 37 39 42 44 45 47 48 47 47 47 47 47
11 12 13 14 14 14 14 15 16 17 17 18 19 20 21 22 23 25 25 25 25 25 25 26 26 26 25 26 27 27 28 27 28 30 31 33 36 37 38 39 40 41 44 45 45 43 43 43 45
11 12 12 13 14 15 14 14 15 16 16 17 18 20 20 21 22 23 24 25 25 25 25 25 25 25 25 26 27 26 25 25 26 28 30 31 33 35 37 38 39 40 40 40 40 41 40 41 42
12 13 14 15 16 16 16 14 16 16 16 17 18 19 20 21 21 22 23 24 25 25 25 24 24 25 24 24 24 24 24 25 25 25 27 27 29 31 33 35 37 37 37 38 39 40 40 39 40
13 13 15 16 17 17 17 16 17 17 17 18 19 19 20 20 20 21 23 23 23 23 24 25 25 25 25 24 24 23 24 25 24 25 26 27 28 28 30 31 33 34 35 37 38 39 39 39 40
Wind_Direction
241 241 242 243 244 245 247 248 248 248 248 248 248 250 251 253 252 252 251 250 250 251 251 250 250 250 251 252 252 252 251 251 251 251 252 252 251 252 254 256 259 259 258 258 261 264 266 267 267
241 241 242 243 244 246 247 249 249 248 248 249 249 250 251 253 253 253 251 250 250 250 251 251 251 251 251 252 252 252 253 252 252 251 251 251 252 251 252 254 258 260 260 258 258 261 263 265 264
240 241 242 243 245 246 248 248 249 249 249 249 250 250 251 252 253 253 252 251 251 251 251 251 252 252 252 252 252 252 253 253 253 252 251 251 251 252 252 253 255 258 260 259 258 259 261 262 262
240 241 242 243 245 246 247 248 249 250 250 250 251 251 251 252 253 253 253 253 252 252 251 251 251 252 252 252 252 252 253 254 254 253 252 251 251 252 252 253 254 256 258 259 259 258 259 262 262
240 241 243 244 245 246 247 247 248 249 250 251 251 252 252 252 253 253 253 254 253 253 253 252 252 252 252 252 252 252 252 253 254 254 254 253 252 253 253 253 254 255 255 257 258 258 259 260 262
241 241 243 244 246 246 247 247 248 249 249 250 250 251 252 253 253 253 254 254 253 253 253 253 252 252 252 252 252 251 251 252 253 253 254 254 253 253 254 254 254 255 256 256 257 258 259 260 261
240 241 243 244 245 246 246 246 247 247 248 249 250 251 252 253 254 255 255 255 255 254 253 253 253 253 253 253 253 252 252 252 252 252 253 254 253 252 253 254 254 255 255 255 256 258 259 260 260
240 241 241 243 244 246 245 245 245 246 248 249 250 252 252 254 255 256 256 257 256 255 255 254 254 254 253 253 253 253 253 252 252 253 253 253 253 252 252 252 253 254 254 254 255 256 258 260 261
239 239 241 242 243 244 244 244 244 245 248 249 251 251 252 253 255 256 257 258 258 257 257 256 255 254 254 253 253 252 253 252 252 252 252 252 252 251 251 251 252 253 254 254 254 254 256 259 261
238 240 241 241 242 243 243 243 243 245 247 249 250 251 252 253 255 257 258 258 258 258 258 257 256 256 255 254 252 252 252 252 251 250 251 251 251 250 250 251 251 251 252 253 254 254 254 257 259
237 239 240 240 241 242 242 242 243 245 247 249 250 251 252 254 256 257 258 258 258 259 259 258 257 256 256 255 253 252 251 251 251 250 250 250 250 249 249 250 251 251 251 252 253 253 254 255 258
235 236 237 239 239 240 242 243 244 245 247 249 251 252 254 256 258 259 259 258 259 260 260 260 258 257 257 256 254 253 252 251 250 251 250 250 250 249 249 250 250 251 251 252 253 253 253 254 255
232 234 235 237 239 240 242 244 245 247 249 250 252 254 255 257 259 260 260 260 260 260 260 260 261 258 257 256 256 254 252 252 252 251 251 251 251 250 250 250 251 252 251 252 253 253 253 254 255
232 234 235 237 239 241 243 244 246 247 249 251 252 254 256 258 260 261 261 261 261 262 262 262 261 259 257 256 255 254 253 252 252 252 252 252 251 251 250 250 251 252 253 254 253 253 253 253 255
231 234 235 236 238 241 243 245 246 247 248 250 252 254 256 259 261 262 262 261 261 262 262 262 262 260 258 256 255 254 255 254 253 253 252 252 252 251 250 250 250 251 252 254 254 252 253 254 255
232 234 236 237 240 240 242 245 246 247 248 251 253 255 257 259 260 262 262 261 262 262 263 264 263 261 259 257 256 256 255 255 254 254 252 252 252 249 249 250 251 251 251 253 255 255 254 254 255
231 234 236 237 238 239 243 245 247 249 251 253 255 256 257 259 260 262 263 263 263 263 263 264 265 262 259 258 257 256 256 255 254 254 253 252 252 249 249 249 250 250 251 252 253 256 256 255 255
232 232 236 238 238 241 245 247 249 252 253 255 255 256 257 260 261 262 264 265 265 265 264 265 266 264 261 260 259 258 258 256 255 254 253 252 251 249 248 248 249 249 249 251 253 254 255 254 253
231 233 237 240 241 243 245 247 249 252 254 255 256 257 259 261 263 264 265 266 267 267 267 267 267 266 264 262 261 260 258 257 256 254 253 252 251 249 247 247 248 247 248 250 251 252 254 254 254
234 236 238 240 243 245 246 247 248 251 254 256 257 258 260 262 263 266 267 268 268 268 269 268 268 267 267 266 264 262 259 257 254 253 253 252 252 249 247 245 246 246 247 248 249 251 253 254 254
236 237 239 242 245 247 248 248 250 252 255 258 259 260 261 262 264 266 269 271 271 271 270 270 270 269 269 268 266 263 259 257 255 254 254 254 253 251 249 247 245 245 246 247 248 250 252 252 254
238 240 245 247 248 249 251 253 254 256 258 259 261 262 263 264 266 269 271 273 273 273 272 272 272 273 272 270 268 265 262 258 256 255 254 254 254 252 250 247 246 246 246 247 247 249 252 252 253
246 248 250 251 252 255 257 259 258 259 260 262 263 264 265 267 268 271 274 275 275 276 276 275 274 275 274 272 269 267 264 261 258 256 254 255 254 253 251 249 248 247 247 248 249 250 253 254 254
252 252 252 253 257 260 262 263 263 262 265 266 266 266 268 269 271 273 276 277 276 277 278 278 276 276 276 274 272 269 265 262 259 257 256 256 255 254 252 250 248 247 247 248 249 251 253 254 255
255 256 257 260 262 264 266 270 271 270 270 269 269 269 270 271 272 274 278 278 278 279 280 279 278 278 279 276 273 272 269 265 261 260 258 255 254 254 252 250 248 247 248 249 250 250 251 253 255
261 262 263 266 268 268 270 274 277 277 276 275 273 274 275 275 276 278 280 280 280 281 281 281 281 281 280 277 275 273 272 269 264 261 259 258 256 255 253 251 249 250 250 250 250 250 251 253 254
264 266 269 271 272 274 273 276 278 280 279 279 278 277 278 280 280 280 281 282 282 283 282 282 282 282 282 280 278 279 274 269 266 264 263 259 255 253 253 252 251 252 251 250 250 251 253 255 255
269 269 273 275 279 281 281 284 286 284 281 282 282 281 282 283 283 284 283 283 284 285 285 284 284 283 283 283 280 278 276 273 271 269 267 264 258 253 253 252 252 252 250 249 249 251 253 256 256
279 275 276 278 282 285 286 288 289 287 284 285 286 286 286 286 285 285 285 286 287 287 289 290 289 287 287 286 283 280 279 278 276 272 270 268 264 260 257 254 253 251 251 250 252 252 253 256 258
281 281 281 281 282 285 287 290 289 288 287 287 288 289 290 289 288 287 287 287 287 288 289 291 291 290 288 287 285 284 281 281 278 277 274 271 269 267 264 258 254 253 253 253 253 253 255 257 259
Height
5798 5800 5803 5806 5808 5811 5814 5817 5820 5822 5824 5825 5827 5829 5831 5833 5836 5840 5840 5840 5842 5843 5845 5846 5848 5849 5850 5852 5853 5854 5856 5857 5859 5860 5861 5862 5864 5865 5866 5867 5868 5869 5870 5871 5872 5873 5873 5874 5874
5791 5794 5797 5799 5802 5805 5809 5812 5815 5816 5818 5820 5822 5824 5826 5828 5830 5832 5834 5835 5837 5839 5840 5842 5843 5845 5846 5847 5849 5850 5852 5853 5855 5856 5858 5859 5861 5862 5863 5864 5866 5867 5868 5869 5870 5871 5871 5872 5872
5784 5787 5790 5793 5796 5800 5804 5806 5808 5810 5812 5814 5816 5819 5821 5823 5825 5827 5829 5830 5832 5834 5835 5837 5838 5840 5841 5843 5844 5846 5847 5849 5850 5852 5854 5855 5857 5858 5860 5861 5863 5864 5865 5866 5867 5868 5869 5869 5870
5778 5781 5784 5787 5791 5795 5797 5800 5802 5804 5806 5808 5811 5813 5815 5817 5819 5821 5823 5825 5827 5828 5830 5831 5833 5835 5836 5838 5839 5841 5843 5844 5846 5848 5849 5851 5853 5854 5856 5857 5859 5860 5862 5863 5864 5865 5866 5867 5867
5770 5773 5777 5781 5785 5788 5791 5793 5795 5798 5800 5802 5805 5807 5809 5811 5813 5815 5817 5819 5821 5822 5824 5826 5827 5829 5831 5832 5834 5836 5838 5839 5841 5843 5845 5847 5848 5850 5852 5853 5855 5856 5858 5859 5861 5862 5863 5863 5864
5763 5766 5771 5775 5779 5782 5784 5787 5789 5791 5794 5796 5799 5801 5803 5805 5806 5808 5810 5812 5814 5816 5818 5819 5821 5823 5825 5826 5828 5830 5832 5834 5835 5838 5839 5841 5843 5845 5847 5849 5851 5852 5854 5855 5857 5858 5859 5860 5861
5756 5760 5764 5769 5772 5775 5778 5780 5783 5785 5788 5790 5792 5794 5797 5799 5800 5802 5804 5805 5807 5809 5811 5812 5814 5816 5818 5820 5822 5824 5826 5827 5830 5832 5834 5836 5838 5840 5842 5844 5846 5848 5849 5851 5852 5854 5855 5856 5857
5748 5753 5757 5761 5765 5768 5771 5774 5776 5779 5781 5784 5786 5788 5790 5792 5793 5795 5797 5798 5800 5801 5803 5805 5807 5809 5811 5813 5815 5817 5819 5821 5823 5825 5827 5830 5832 5834 5836 5838 5840 5842 5844 5846 5848 5849 5850 5852 5853
5741 5747 5750 5755 5758 5761 5764 5767 5770 5772 5775 5777 5779 5782 5784 5785 5787 5789 5790 5791 5792 5794 5795 5797 5799 5801 5803 5805 5807 5810 5812 5814 5816 5819 5821 5823 5825 5828 5830 5832 5834 5837 5839 5841 5842 5844 5845 5847 5848
5734 5739 5744 5748 5751 5754 5758 5761 5764 5766 5768 5771 5773 5775 5777 5778 5780 5782 5783 5784 5785 5786 5788 5789 5791 5793 5795 5797 5799 5802 5804 5807 5809 5811 5814 5816 5818 5821 5823 5826 5828 5830 5832 5835 5837 5838 5840 5841 5843
5727 5732 5736 5740 5744 5747 5751 5754 5757 5759 5762 5764 5767 5769 5770 5772 5773 5774 5775 5776 5777 5779 5780 5781 5782 5784 5786 5789 5791 5794 5796 5799 5801 5804 5806 5809 5811 5814 5816 5819 5822 5824 5826 5828 5830 5832 5834 5836 5838
5721 5725 5730 5734 5737 5741 5744 5747 5750 5753 5756 5758 5760 5761 5763 5764 5766 5767 5768 5769 5770 5771 5772 5773 5774 5776 5778 5780 5782 5785 5787 5790 5793 5796 5798 5801 5804 5806 5809 5812 5815 5817 5819 5821 5824 5826 5828 5830 5832
5715 5719 5723 5727 5731 5734 5738 5741 5743 5746 5748 5750 5752 5754 5756 5757 5758 5759 5760 5761 5762 5763 5764 5764 5765 5766 5768 5771 5773 5776 5778 5781 5784 5787 5789 5792 5795 5798 5801 5804 5807 5810 5812 5814 5816 5819 5821 5823 5825
5710 5714 5718 5722 5725 5728 5732 5734 5737 5739 5741 5743 5745 5747 5749 5750 5751 5752 5752 5753 5754 5755 5755 5755 5756 5757 5759 5761 5764 5766 5769 5772 5774 5777 5780 5783 5786 5789 5793 5796 5799 5802 5804 5806 5808 5811 5814 5816 5818
5706 5710 5713 5717 5720 5723 5726 5729 5731 5733 5735 5737 5739 5740 5742 5743 5743 5744 5744 5745 5746 5746 5747 5747 5748 5748 5750 5752 5754 5757 5759 5761 5764 5767 5770 5773 5776 5779 5783 5787 5790 5793 5796 5798 5800 5802 5805 5808 5810
5702 5705 5709 5712 5715 5718 5722 5724 5725 5727 5729 5731 5732 5734 5735 5736 5736 5737 5737 5737 5738 5738 5739 5739 5739 5739 5741 5742 5744 5746 5749 5751 5754 5756 5759 5762 5765 5769 5773 5777 5781 5784 5787 5789 5792 5794 5796 5799 5802
5698 5701 5704 5708 5710 5713 5716 5719 5720 5722 5723 5725 5726 5727 5728 5729 5730 5730 5730 5730 5730 5730 5731 5731 5731 5731 5732 5733 5734 5736 5738 5740 5742 5745 5748 5752 5755 5758 5762 5767 5771 5774 5777 5780 5783 5786 5788 5790 5793
5696 5699 5701 5704 5707 5709 5711 5714 5715 5716 5717 5719 5720 5721 5722 5722 5723 5723 5723 5723 5723 5723 5723 5723 5723 5722 5722 5723 5724 5726 5728 5730 5732 5734 5737 5740 5743 5747 5751 5756 5760 5764 5767 5770 5773 5776 5778 5781 5783
5693 5695 5698 5700 5702 5705 5706 5708 5710 5710 5712 5713 5714 5715 5716 5716 5716 5716 5716 5716 5716 5716 5715 5715 5715 5715 5714 5714 5715 5716 5718 5719 5721 5723 5726 5729 5732 5735 5739 5744 5749 5752 5756 5760 5763 5766 5769 5771 5773
5690 5692 5694 5696 5698 5700 5702 5704 5705 5706 5707 5708 5709 5709 5710 5710 5710 5710 5709 5709 5709 5708 5708 5708 5707 5707 5706 5706 5706 5707 5708 5709 5711 5713 5715 5718 5721 5724 5728 5733 5738 5742 5745 5749 5752 5755 5758 5761 5763
5688 5690 5692 5694 5695 5696 5698 5700 5701 5701 5702 5703 5703 5704 5704 5704 5704 5704 5703 5703 5702 5701 5701 5700 5699 5699 5698 5697 5697 5697 5698 5699 5701 5703 5705 5708 5710 5714 5717 5722 5726 5730 5734 5738 5741 5745 5748 5751 5753
5687 5689 5690 5691 5692 5693 5695 5696 5697 5697 5698 5698 5699 5699 5699 5699 5698 5698 5698 5697 5695 5694 5693 5692 5692 5691 5690 5689 5689 5689 5689 5691 5692 5693 5695 5697 5700 5703 5706 5710 5714 5718 5722 5726 5730 5733 5736 5739 5741
5686 5687 5688 5688 5689 5690 5691 5692 5694 5693 5693 5694 5694 5694 5694 5694 5693 5693 5692 5690 5689 5688 5686 5685 5684 5683 5682 5681 5680 5680 5681 5681 5682 5684 5686 5687 5689 5692 5695 5699 5703 5706 5711 5715 5718 5721 5724 5726 5729
5684 5685 5685 5686 5686 5688 5688 5688 5689 5689 5690 5690 5690 5689 5689 5689 5688 5687 5686 5685 5683 5682 5680 5679 5678 5676 5675 5674 5673 5672 5672 5672 5673 5674 5675 5677 5678 5680 5683 5687 5691 5694 5699 5703 5706 5709 5711 5714 5717
5682 5683 5684 5683 5684 5685 5684 5684 5686 5685 5685 5685 5685 5685 5684 5683 5682 5681 5680 5679 5678 5676 5674 5673 5671 5670 5668 5667 5666 5665 5664 5664 5664 5664 5665 5667 5669 5671 5673 5676 5679 5683 5687 5691 5694 5697 5699 5702 5705
5680 5681 5682 5682 5681 5682 5681 5681 5683 5682 5681 5680 5680 5680 5679 5678 5677 5676 5675 5673 5672 5670 5669 5667 5665 5664 5662 5661 5659 5658 5657 5655 5655 5655 5656 5657 5659 5661 5663 5666 5669 5672 5676 5679 5682 5685 5688 5690 5693
5679 5679 5679 5679 5678 5678 5678 5678 5678 5677 5677 5676 5675 5675 5674 5673 5672 5670 5669 5667 5666 5664 5663 5661 5660 5658 5656 5654 5653 5651 5649 5648 5647 5647 5647 5648 5650 5651 5653 5655 5658 5661 5664 5667 5670 5673 5676 5678 5681
5677 5676 5676 5676 5675 5674 5675 5675 5675 5673 5672 5672 5671 5670 5669 5668 5666 5664 5663 5662 5660 5659 5657 5655 5653 5652 5650 5648 5646 5645 5644 5642 5641 5640 5640 5639 5640 5641 5643 5645 5648 5650 5653 5656 5659 5662 5665 5667 5670
5675 5675 5673 5673 5672 5671 5671 5674 5671 5669 5668 5667 5666 5665 5664 5663 5661 5659 5658 5656 5655 5653 5651 5649 5647 5646 5644 5642 5641 5639 5638 5637 5635 5634 5633 5632 5632 5632 5634 5636 5638 5641 5643 5646 5649 5652 5655 5657 5660
5672 5671 5670 5670 5669 5667 5667 5671 5666 5665 5664 5663 5662 5661 5659 5658 5656 5654 5652 5651 5649 5647 5645 5643 5641 5640 5638 5636 5635 5633 5631 5630 5629 5628 5627 5626 5625 5625 5626 5627 5629 5631 5634 5637 5639 5642 5644 5647 5649